KN4CI-1 Weather Reports


Display with metric or nautical units.
time (UTC)temp
F
wind
direction
speed
MPH
gust
MPH
rain 1hr
in
rain 24hr
in
rain mn
in
humidity
%
barometer
mb
20260905001821 84 53 0.0 0.0 0.00 0.00 0.00 13 1014.6
20260905001315 84 53 0.0 0.0 0.00 0.00 0.00 13 1014.6
20260905000815 85 53 0.0 0.0 0.00 0.00 0.00 13 1014.6
20260904235808 85 53 0.0 0.0 0.00 0.00 0.00 13 1014.6
20260904235308 86 53 0.0 0.0 0.00 0.00 0.00 13 1014.6
20260904234808 86 347 0.0 0.0 0.00 0.00 0.00 13 1014.6
20260904233806 86 351 0.0 0.0 0.00 0.00 0.00 13 1014.6
20260904233306 87 313 0.0 0.0 0.00 0.00 0.00 13 1014.6
20260904232306 87 46 0.0 0.0 0.00 0.00 0.00 13 1014.6
20260904230303 88 351 0.0 0.0 0.00 0.00 0.00 13 1014.6
20260904225758 88 351 0.0 0.0 0.00 0.00 0.00 13 1014.6
20260904225259 88 351 0.0 0.0 0.00 0.00 0.00 12 1014.6
20260904224758 89 351 0.0 0.0 0.00 0.00 0.00 12 1014.6
20260904224254 89 39 0.0 0.0 0.00 0.00 0.00 12 1014.6
20260904223754 89 33 0.0 0.0 0.00 0.00 0.00 12 1014.6
20260904221248 92 338 0.0 0.0 0.00 0.00 0.00 12 1014.6
20260904220747 93 338 0.0 0.0 0.00 0.00 0.00 11 1013.6
20260904214745 95 338 0.0 0.0 0.00 0.00 0.00 11 1013.6
20260904213243 97 338 0.0 0.0 0.00 0.00 0.00 11 1013.6
20260904212738 97 80 0.0 0.0 0.00 0.00 0.00 11 1013.6
20260904211235 97 56 0.0 0.0 0.00 0.00 0.00 11 1013.6
20260904210232 97 11 0.0 0.0 0.00 0.00 0.00 11 1014.6
20260904205229 96 100 0.0 0.0 0.00 0.00 0.00 11 1014.6
20260904204312 97 96 0.0 0.0 0.00 0.00 0.00 11 1014.6
20260904204225 97 96 0.0 0.0 0.00 0.00 0.00 11 1014.6
20260904203226 97 101 0.0 0.0 0.00 0.00 0.00 11 1014.6
20260904202721 98 116 0.0 0.0 0.00 0.00 0.00 10 1014.6
20260904201722 98 79 0.0 0.0 0.00 0.00 0.00 10 1014.6
20260904201218 98 81 0.0 0.0 0.00 0.00 0.00 10 1014.6
20260904195905 97 346 0.0 0.0 0.00 0.00 0.00 11 1014.6
20260904195712 97 346 0.0 0.0 0.00 0.00 0.00 11 1014.6
20260904195212 97 67 0.0 0.0 0.00 0.00 0.00 11 1015.6
20260904194712 97 340 0.0 0.0 0.00 0.00 0.00 11 1015.6
20260904194210 97 333 0.0 0.0 0.00 0.00 0.00 11 1015.6
20260904193710 97 112 0.0 0.0 0.00 0.00 0.00 11 1015.6
20260904193211 98 318 0.0 0.0 0.00 0.00 0.00 10 1015.6
20260904192904 98 68 0.0 0.0 0.00 0.00 0.00 10 1015.6
20260904192206 98 68 0.0 0.0 0.00 0.00 0.00 10 1015.6
20260904191707 98 69 0.0 0.0 0.00 0.00 0.00 10 1015.6
20260904190601 97 57 0.0 0.0 0.00 0.00 0.00 11 1015.6
20260904190058 97 3 0.0 0.0 0.00 0.00 0.00 11 1015.6
20260904185737 96 328 0.0 0.0 0.00 0.00 0.00 11 1016.6
20260904185553 96 328 0.0 0.0 0.00 0.00 0.00 11 1016.6
20260904184551 96 31 0.0 0.0 0.00 0.00 0.00 11 1016.6
20260904183546 96 351 0.0 0.0 0.00 0.00 0.00 11 1016.6
20260904182031 96 8 0.0 0.0 0.00 0.00 0.00 11 1016.6
20260904181531 96 47 0.0 0.0 0.00 0.00 0.00 11 1016.6
20260904174520 96 112 0.0 0.0 0.00 0.00 0.00 11 1016.6
20260904171510 94 98 0.0 0.0 0.00 0.00 0.00 11 1017.6
20260904162957 91 334 0.0 0.0 0.00 0.00 0.00 12 1017.6
20260904155556 89 111 0.0 0.0 0.00 0.00 0.00 12 1017.6
20260904155051 88 111 0.0 0.0 0.00 0.00 0.00 12 1017.6
20260904154551 88 111 0.0 0.0 0.00 0.00 0.00 13 1017.6
20260904154051 88 111 0.0 0.0 0.00 0.00 0.00 13 1017.6
20260904152549 88 111 0.0 0.0 0.00 0.00 0.00 13 1017.6
20260904152047 88 111 0.0 0.0 0.00 0.00 0.00 13 1017.6
20260904151048 87 111 0.0 0.0 0.00 0.00 0.00 15 1017.6
20260904145040 86 111 0.0 0.0 0.00 0.00 0.00 16 1017.6
20260904144540 86 111 0.0 0.0 0.00 0.00 0.00 16 1017.6
20260904144041 86 111 0.0 0.0 0.00 0.00 0.00 18 1017.6
20260904141537 84 112 0.0 0.0 0.00 0.00 0.00 22 1017.6
20260904141037 83 114 0.0 0.0 0.00 0.00 0.00 25 1017.6
20260904140028 82 114 0.0 0.0 0.00 0.00 0.00 29 1017.6
20260904135020 80 114 0.0 0.0 0.00 0.00 0.00 30 1017.6
20260904134556 80 114 0.0 0.0 0.00 0.00 0.00 30 1017.6
20260904134520 80 114 0.0 0.0 0.00 0.00 0.00 30 1017.6
20260904132014 78 114 0.0 0.0 0.00 0.00 0.00 31 1017.6
20260904131514 78 114 0.0 0.0 0.00 0.00 0.00 31 1017.6
20260904131015 78 114 0.0 0.0 0.00 0.00 0.00 31 1017.6
20260904130509 77 114 0.0 0.0 0.00 0.00 0.00 32 1017.6
20260904130010 77 114 0.0 0.0 0.00 0.00 0.00 32 1017.6
20260904125506 76 114 0.0 0.0 0.00 0.00 0.00 32 1017.6
20260904125002 76 114 0.0 0.0 0.00 0.00 0.00 32 1017.6
20260904123457 75 114 0.0 0.0 0.00 0.00 0.00 32 1016.6
20260904122957 74 114 0.0 0.0 0.00 0.00 0.00 32 1016.6
20260904121445 74 114 0.0 0.0 0.00 0.00 0.00 33 1017.6
20260904120437 73 114 0.0 0.0 0.00 0.00 0.00 33 1016.6
20260904115937 73 114 0.0 0.0 0.00 0.00 0.00 33 1016.6
20260904113935 72 114 0.0 0.0 0.00 0.00 0.00 33 1016.6
20260904113430 72 114 0.0 0.0 0.00 0.00 0.00 33 1016.6
20260904112930 72 114 0.0 0.0 0.00 0.00 0.00 33 1016.6
20260904111926 72 114 0.0 0.0 0.00 0.00 0.00 33 1016.6
20260904111425 72 114 0.0 0.0 0.00 0.00 0.00 33 1016.6
20260904110925 72 114 0.0 0.0 0.00 0.00 0.00 33 1016.6
20260904104911 72 114 0.0 0.0 0.00 0.00 0.00 32 1016.6
20260904104411 72 114 0.0 0.0 0.00 0.00 0.00 32 1016.6
20260904103406 73 114 0.0 0.0 0.00 0.00 0.00 32 1015.6
20260904102905 73 114 0.0 0.0 0.00 0.00 0.00 32 1015.6
20260904102405 73 114 0.0 0.0 0.00 0.00 0.00 32 1015.6
20260904101900 73 114 0.0 0.0 0.00 0.00 0.00 32 1015.6
20260904101400 73 114 0.0 0.0 0.00 0.00 0.00 32 1015.6
20260904100353 73 114 0.0 0.0 0.00 0.00 0.00 32 1015.6
20260904095352 73 114 0.0 0.0 0.00 0.00 0.00 32 1015.6
20260904093850 73 114 0.0 0.0 0.00 0.00 0.00 32 1015.6
20260904092848 73 114 0.0 0.0 0.00 0.00 0.00 32 1015.6
20260904092348 73 114 0.0 0.0 0.00 0.00 0.00 32 1015.6
20260904084827 74 114 0.0 0.0 0.00 0.00 0.00 31 1015.6
20260904084324 74 114 0.0 0.0 0.00 0.00 0.00 31 1015.6
20260904083317 74 114 0.0 0.0 0.00 0.00 0.00 31 1015.6
20260904082816 74 114 0.0 0.0 0.00 0.00 0.00 31 1015.6
20260904081810 74 114 0.0 0.0 0.00 0.00 0.00 31 1015.6
20260904075803 74 114 0.0 0.0 0.00 0.00 0.00 31 1015.6
20260904075306 74 114 0.0 0.0 0.00 0.00 0.00 31 1015.6
20260904074753 74 114 0.0 0.0 0.00 0.00 0.00 31 1015.6
20260904072749 74 114 0.0 0.0 0.00 0.00 0.00 31 1015.6
20260904072249 74 114 0.0 0.0 0.00 0.00 0.00 31 1015.6
20260904071745 74 114 0.0 0.0 0.00 0.00 0.00 31 1015.6
20260904071245 74 114 0.0 0.0 0.00 0.00 0.00 31 1015.6
20260904070239 74 114 0.0 0.0 0.00 0.00 0.00 31 1015.6
20260904065240 75 114 0.0 0.0 0.00 0.00 0.00 30 1015.6
20260904064731 75 114 0.0 0.0 0.00 0.00 0.00 30 1015.6
20260904063731 75 114 0.0 0.0 0.00 0.00 0.00 30 1015.6
20260904062217 75 114 0.0 0.0 0.00 0.00 0.00 30 1015.6
20260904060710 75 114 0.0 0.0 0.00 0.00 0.00 29 1015.6
20260904055707 76 114 0.0 0.0 0.00 0.00 0.00 29 1015.6
20260904054703 76 114 0.0 0.0 0.00 0.00 0.00 29 1015.6
20260904054202 76 114 0.0 0.0 0.00 0.00 0.00 29 1015.6
20260904053154 76 114 0.0 0.0 0.00 0.00 0.00 28 1015.6
20260904051648 76 114 0.0 0.0 0.00 0.00 0.00 27 1015.6
20260904051148 76 114 0.0 0.0 0.00 0.00 0.00 27 1015.6
20260904045643 76 114 0.0 0.0 0.00 0.00 0.00 27 1015.6
20260904045144 76 114 0.0 0.0 0.00 0.00 0.00 27 1016.6
20260904044638 77 114 0.0 0.0 0.00 0.00 0.00 26 1016.6
20260904043130 77 114 0.0 0.0 0.00 0.00 0.00 26 1016.6
20260904041623 77 114 0.0 0.0 0.00 0.00 0.00 25 1016.6
20260904040623 77 114 0.0 0.0 0.00 0.00 0.00 25 1016.6
20260904035621 77 114 0.0 0.0 0.00 0.00 0.00 25 1016.6
20260904034617 78 114 0.0 0.0 0.00 0.00 0.00 25 1016.6
20260904033612 78 114 0.0 0.0 0.00 0.00 0.00 24 1016.6
20260904033106 78 114 0.0 0.0 0.00 0.00 0.00 24 1016.6
20260904032106 78 114 0.0 0.0 0.00 0.00 0.00 23 1016.6
20260904031602 78 114 0.0 0.0 0.00 0.00 0.00 23 1016.6
20260904031102 78 114 0.0 0.0 0.00 0.00 0.00 23 1016.6
20260904030602 78 114 0.0 0.0 0.00 0.00 0.00 22 1016.6
20260904024552 79 114 0.0 0.0 0.00 0.00 0.00 21 1016.6
20260904024052 79 114 0.0 0.0 0.00 0.00 0.00 21 1016.6
20260904023049 79 114 0.0 0.0 0.00 0.00 0.00 21 1016.6
20260904022549 79 114 0.0 0.0 0.00 0.00 0.00 21 1016.6
20260904022049 79 114 0.0 0.0 0.00 0.00 0.00 21 1016.6
20260904021047 80 114 0.0 0.0 0.00 0.00 0.00 20 1015.6
20260904020547 80 114 0.0 0.0 0.00 0.00 0.00 20 1015.6
20260904020043 80 114 0.0 0.0 0.00 0.00 0.00 20 1015.6
20260904015543 80 114 0.0 0.0 0.00 0.00 0.00 20 1015.6
20260904015043 80 114 0.0 0.0 0.00 0.00 0.00 20 1015.6
20260904014533 80 114 0.0 0.0 0.00 0.00 0.00 19 1015.6
20260904014034 80 114 0.0 0.0 0.00 0.00 0.00 19 1015.6
20260904013531 80 114 0.0 0.0 0.00 0.00 0.00 19 1015.6
20260904012528 81 114 0.0 0.0 0.00 0.00 0.00 19 1015.6
20260904011022 81 114 0.0 0.0 0.00 0.00 0.00 19 1015.6
20260904005519 83 114 0.0 0.0 0.00 0.00 0.00 19 1015.6
20260904005019 83 114 0.0 0.0 0.00 0.00 0.00 16 1015.6
20260904004017 83 114 0.0 0.0 0.00 0.00 0.00 16 1015.6
20260904003517 83 114 0.0 0.0 0.00 0.00 0.00 16 1015.6
20260904002515 84 114 0.0 0.0 0.00 0.00 0.00 16 1015.6